Location: Cormont
(50.5693°N, 1.7416°E)
Time: 06:54:23
(UTC+00:00)

Cosmos 2227 Rocket - Pass Details

Date: 21 October 2019
Orbit: 838 x 846 km, 71.0° (Epoch: 12 November)

Event Time Altitude Azimuth Distance (km) Brightness Sun altitude
Rises 19:36:54 0° 328° (NNW) 3,420 6.0 -27.1°
Reaches altitude 10° 19:40:56 10° 356° (N) 2,482 4.9 -27.7°
Enters shadow 19:43:25 13° 22° (NNE) 2,273 4.4 -28.0°
